Flag for Belarus Weather past 2 weeks in Gomel, Belarus

Now
73 °F

Clear.


Feels Like: 76 °F
Forecast: 68 / 92 °F
Wind: 6 mph from Southeast

Location: Gomel'

Current Time: Aug 1, 2014 at 12:04:08 AM

Latest Report: Jul 31, 2014 at 11:30 PM


Visibility: 10 mi

Pressure: 29.95 "Hg

Humidity: 65%

Dew point: 61 °F

Location of GomelLocation

Historic Weather in Gomel — Graph

°F

Gomel temperature yesterday

Maximum temperature yesterday: 90 °F (at 2:00 PM)
Minimum temperature yesterday: 64 °F (at 4:00 AM)
Average temperature yesterday: 79 °F

Past Weeks' High & Low Weather Summary

 TemperatureHumidityPressure
High90 °F (Jul 31, 2:00 PM)100% (Jul 17, 5:00 AM)30.18 "Hg (Jul 17, 5:00 AM)
Low55 °F (Jul 24, 4:00 AM)26% (Jul 24, 1:00 PM)29.83 "Hg (Jul 21, 7:00 AM)
Average74 °F62%30.04 "Hg
* Reported Jul 16 11:00 PM — Jul 31 11:00 PM, Gomel, Weather by CustomWeather, © 2014

Note: Actual official high and low records may vary slightly from our data, if they occured in-between our weather recording intervals... More about our weather records

Advertising

Gomel weather history for previous 24 hours

 ConditionsComfort  
Time TempWeatherWind HumidityBarometerVisibility
11:00 PM
Jul 31
73 °FClear.6 mph65%29.95 "Hg10 mi
10:30 PM77 °FClear.6 mph57%29.95 "Hg10 mi
10:00 PM77 °FClear.6 mph57%29.95 "Hg10 mi
9:30 PM79 °FSunny.6 mph58%29.95 "Hg10 mi
9:00 PM79 °FSunny.6 mph58%29.95 "Hg10 mi
8:30 PM84 °FSunny.6 mph45%29.95 "Hg10 mi
8:00 PM84 °FSunny.6 mph45%29.95 "Hg10 mi
7:30 PM86 °FSunny.6 mph40%29.95 "Hg10 mi
7:00 PM86 °FSunny.6 mph40%29.95 "Hg10 mi
6:30 PM88 °FSunny.6 mph33%29.95 "Hg10 mi
6:00 PM88 °FSunny.8 mph33%29.95 "Hg10 mi
5:30 PM88 °FSunny.8 mph33%29.95 "Hg10 mi
5:00 PM88 °FSunny.8 mph33%29.95 "Hg10 mi
4:30 PM90 °FSunny.10 mph29%29.95 "Hg10 mi
4:00 PM90 °FSunny.10 mph29%29.98 "Hg10 mi
3:30 PM90 °FSunny.10 mph36%29.98 "Hg10 mi
3:00 PM90 °FSunny.10 mph36%29.98 "Hg10 mi
2:30 PM90 °FSunny.13 mph33%30.01 "Hg10 mi
2:00 PM90 °FSunny.13 mph33%30.01 "Hg10 mi
1:30 PM88 °FSunny.13 mph35%30.01 "Hg10 mi
1:00 PM88 °FSunny.13 mph35%30.01 "Hg10 mi
12:30 PM88 °FSunny.13 mph38%30.01 "Hg10 mi
12:00 PM88 °FSunny.13 mph38%30.01 "Hg10 mi
11:30 AM84 °FSunny.10 mph45%30.01 "Hg10 mi
11:00 AM84 °FSunny.10 mph45%30.01 "Hg10 mi
10:30 AM82 °FSunny.10 mph48%30.01 "Hg10 mi
10:00 AM82 °FSunny.8 mph48%30.01 "Hg10 mi
9:30 AM75 °FSunny.8 mph57%30.01 "Hg10 mi
9:00 AM75 °FSunny.8 mph57%30.01 "Hg10 mi
8:30 AM72 °FSunny.8 mph61%30.01 "Hg10 mi
8:00 AM72 °FSunny.8 mph61%30.01 "Hg10 mi
7:30 AM66 °FSunny.6 mph73%30.01 "Hg10 mi
7:00 AM66 °FSunny.6 mph73%30.01 "Hg10 mi
6:30 AM64 °FSunny.6 mph73%30.01 "Hg10 mi
6:00 AM64 °FClear.6 mph73%30.01 "Hg10 mi
5:00 AM64 °FClear.6 mph73%30.01 "Hg10 mi
4:00 AM64 °FClear.3 mph73%30.01 "Hg10 mi
3:00 AM66 °FClear.3 mph68%30.01 "Hg10 mi
2:00 AM68 °FClear.3 mph64%30.01 "Hg10 mi
1:00 AM70 °FClear.3 mph60%30.01 "Hg10 mi
12:00 AM72 °FClear.6 mph57%30.01 "Hg10 mi
Weather by CustomWeather, © 2014

See weather overviewHow to use our weather pages